Regional Weather Roundup
Issued by NWS Grand Forks, ND

Home | Current Version | Previous Version | Text Only | Print | Product List | Glossary Off
Versions: 1 2 3 4 5 6 7 8 9 10 11 12 13 14 15 16 17 18 19 20 21 22 23 24 25 26 27 28 29 30 31 32 33 34 35 36 37 38 39 40 41 42 43 44 45 46 47 48 49 50

000
ASUS43 KFGF 230031
RWRFGF
PRAIRIE TO PINES  WEATHER ROUNDUP
NATIONAL WEATHER SERVICE EASTERN NORTH DAKOTA/GRAND FORKS ND
700 PM CDT SAT APR 22 2017

 **SATELLITE DATA USED TO AUGMENT SKY COVER AT AUTOMATED STATIONS**
 *****  WEATHER ACROSS EASTERN NORTH DAKOTA  *****

CITY           SKY/WX    TMP DP  RH WIND       PRES   REMARKS
GRAND FORKS    PTSUNNY   40  31  70 N21G31    30.19S
6HR MIN TEMP:  40; 6HR MAX TEMP:  55;

GRAND FRKS AFB CLOUDY    38  31  74 NE20      30.20R
DEVILS LAKE    LGT SNOW  34  30  86 NE15      30.21S FOG     WCI  24
6HR MIN TEMP:  36; 6HR MAX TEMP:  49; 6HR PCP: TRACE;

FARGO          FAIR      61  42  49 N22       30.07S
WAHPETON ARPT  FAIR      64  37  36 W10       30.05F
$$

 ***** WEATHER ACROSS CENTRAL AND WESTERN NORTH DAKOTA  *****

CITY           SKY/WX    TMP DP  RH WIND       PRES   REMARKS
BISMARCK       CLOUDY    63  44  50 NE17      30.06S
6HR MIN TEMP:  63; 6HR MAX TEMP:  71;

MINOT          CLOUDY    41  35  79 N17       30.18S
6HR MIN TEMP:  41; 6HR MAX TEMP:  54; 6HR PCP: TRACE;

JAMESTOWN      FAIR      54  45  71 NE21G29   30.08R
6HR MIN TEMP:  54; 6HR MAX TEMP:  68;

MINOT AFB      LGT RAIN  39  32  75 NE15      30.18F
GARRISON         N/A     47  37  68 NE16G25   30.12S
WILLISTON      CLOUDY    48  37  65 NE12      30.13F
6HR MIN TEMP:  48; 6HR MAX TEMP:  54;

DICKINSON      CLOUDY    59  38  45 W12       30.05F
6HR MIN TEMP:  57; 6HR MAX TEMP:  63;

HETTINGER      CLOUDY    63  39  41 W10       30.08F
6HR MIN TEMP:  60; 6HR MAX TEMP:  65;

$$

 *****  OTHER AIRPORT OBSERVATIONS IN OUR AREA  *****

CITY           SKY/WX    TMP DP  RH WIND       PRES   REMARKS
WALHALLA       NOT AVBL
GRAFTON AIRPOR CLOUDY    36  30  80 N15       30.24F
VALLEY CITY AR MOCLDY    48  43  81 NE21G26   30.12R
CANDO          NOT AVBL
CAVALIER APRT  FAIR      37  28  70 N12       30.24R
GWINNER        CLEAR     66  36  32 MISG      30.05F
SHEYENNE NWR     N/A     69  30  23 W13       29.95
ROLLA          MOCLDY    34  28  80 NE16      30.23S WCI  23
 ***** THE ABOVE OBSERVATIONS ARE NON NWS ARE NOT QUALITY
       CONTROLLED AND MAY MIS-REPORT RAIN FOR SNOW...
$$

  *****  WEATHER ACROSS NORTHERN MINNESOTA  *****

CITY           SKY/WX    TMP DP  RH WIND       PRES   REMARKS
FLAG ISLAND    FAIR      39  28  65 N16       30.18R
WARROAD        FAIR      37  34  87 NW10      30.19S
ROSEAU         FAIR      36  30  80 N12       30.20R
HALLOCK        CLOUDY    36  27  69 N14       30.23R
THF RVR FALLS  PTSUNNY   40  33  76 N22       30.17
6HR MIN TEMP:  40; 6HR MAX TEMP:  54;

BAUDETTE       CLOUDY    38  36  92 NW12      30.16S
6HR MIN TEMP:  36; 6HR MAX TEMP:  46; 6HR PCP:  0.15;

WASKISH        CLOUDY    41  36  81 N12G17    30.15R
CROOKSTON      FAIR      41  34  75 N21G28    30.17R
STEPHEN NDAWN    N/A     34  28  80 N13         N/A  WCI  25
GREENBUSH NDAW   N/A     36  30  80 N12         N/A
$$
  *****  WEATHER ACROSS CENTRAL AND WEST MINNESOTA  *****

CITY           SKY/WX    TMP DP  RH WIND       PRES   REMARKS
FOSSTON        FAIR      48  37  66 N20       30.11S
BEMIDJI        FAIR      53  39  58 N9        30.08S
PARK RAPIDS    PTSUNNY   65  36  34 W12       30.05F
6HR MIN TEMP:  63; 6HR MAX TEMP:  69;

ELBOW LAKE     FAIR      65  37  35 SW13      30.08F
6HR MIN TEMP:  62; 6HR MAX TEMP:  67;

WADENA         FAIR      63  39  42 W12       30.07S
DETROIT LAKES  FAIR      61  43  51 N12       30.07F
MOORHEAD       FAIR      61  43  51 N15       30.08S
FERGUS FALLS   FAIR      64  41  42 W9        30.04F
MORRIS MN      FAIR      66  37  34 W14       30.08F
STAPLES        FAIR      63  36  36 SW9       30.07F
$$
  *****  WEATHER ELSEWHERE ACROSS MINNESOTA  *****

CITY           SKY/WX    TMP DP  RH WIND       PRES   REMARKS
DULUTH         FAIR      62  36  37 W15       30.03F
6HR MIN TEMP:  62; 6HR MAX TEMP:  68;

INTRNTL FALLS  LGT RAIN  40  37  89 NW12      30.13R
6HR MIN TEMP:  41; 6HR MAX TEMP:  56; 6HR PCP: TRACE;

ELY            PTSUNNY   52  36  54 N10G17    30.07R
CLOQUET        FAIR      63  28  27 W10G18    30.04S
WHEATON        FAIR      66  32  28 SW12      30.09F
BRAINERD       FAIR      64  35  34 W12       30.08F
6HR MIN TEMP:  63; 6HR MAX TEMP:  66;

HIBBING        FAIR      57  39  51 NW13      30.04R
6HR MIN TEMP:  57; 6HR MAX TEMP:  65;

ALEXANDRIA     FAIR      65  36  34 W13       30.10F
6HR MIN TEMP:  62; 6HR MAX TEMP:  67;

SAINT CLOUD    FAIR      66  36  32 W15       30.10F
6HR MIN TEMP:  63; 6HR MAX TEMP:  68;

MINNEAPOLIS    FAIR      67  34  29 W12       30.12F
6HR MIN TEMP:  65; 6HR MAX TEMP:  69;

$$

  *****  WEATHER ACROSS SOUTH DAKOTA  *****

CITY           SKY/WX    TMP DP  RH WIND       PRES   REMARKS
SIOUX FALLS    FAIR      66  37  34 SW5       30.16F
6HR MIN TEMP:  62; 6HR MAX TEMP:  69;

BROOKINGS      FAIR      64  35  34 W13       30.16F
WATERTOWN      FAIR      64  35  34 SW9       30.13F
6HR MIN TEMP:  60; 6HR MAX TEMP:  66;

HURON          FAIR      66  33  29 SW10      30.14F
6HR MIN TEMP:  63; 6HR MAX TEMP:  69;

SISSETON         N/A     68  36  30 W16       30.07F
ABERDEEN       FAIR      68  24  19 SW15      30.08F
6HR MIN TEMP:  64; 6HR MAX TEMP:  70;

MITCHELL       FAIR      66  37  34 W8        30.17F
PIERRE         FAIR      67  34  29 SW14      30.09F
6HR MIN TEMP:  61; 6HR MAX TEMP:  68;

MOBRIDGE       FAIR      70  36  28 SW14      30.04F
RAPID CITY     FAIR      64  32  30 S18       30.08F
6HR MIN TEMP:  58; 6HR MAX TEMP:  67;

$$

  *****  SOME WEATHER IN NEARBY STATES *****

CITY           SKY/WX    TMP DP  RH WIND       PRES   REMARKS
GLASGOW MT     CLOUDY    51  40  65 E14       30.06F
6HR MIN TEMP:  45; 6HR MAX TEMP:  51;

GREAT FALLS MT FAIR      61  29  29 S9        29.90F
6HR MIN TEMP:  52; 6HR MAX TEMP:  62;

CHEYENNE WY    FAIR      50  26  39 S12       30.21F
6HR MIN TEMP:  42; 6HR MAX TEMP:  53;

SCOTTSBLUFF NE FAIR      62  27  26 SW12G18   30.17F
6HR MIN TEMP:  56; 6HR MAX TEMP:  64;

OMAHA NE       FAIR      67  31  26 NE8       30.18S
6HR MIN TEMP:  63; 6HR MAX TEMP:  69;

DES MOINES IA  FAIR      66  26  22 N10       30.16S
6HR MIN TEMP:  64; 6HR MAX TEMP:  68;

DAVENPORT IA   FAIR      61  30  31 NE15      30.15S
6HR MIN TEMP:  58; 6HR MAX TEMP:  64;

CHICAGO IL     FAIR      57  20  23 N9        30.15F
6HR MIN TEMP:  56; 6HR MAX TEMP:  60;

EAU CLAIRE WI  FAIR      65  31  28 W9        30.11F
6HR MIN TEMP:  62; 6HR MAX TEMP:  67;

LA CROSSE WI   FAIR      68  24  19 CALM      30.13F
6HR MIN TEMP:  63; 6HR MAX TEMP:  69;

$$

  *****  SOME NATIONAL WEATHER *****

CITY           SKY/WX    TMP DP  RH WIND       PRES   REMARKS
LA GUARDIA NY  CLOUDY    55  47  74 NW3       29.96R
6HR MIN TEMP:  53; 6HR MAX TEMP:  55; 6HR PCP:  0.04;

RALEIGH NC     CLOUDY    64  60  87 N12G18    29.88R
6HR MIN TEMP:  64; 6HR MAX TEMP:  87; 6HR PCP:  0.09;

ATLANTA GA     MOCLDY    76  56  49 SW9       29.83S
6HR MIN TEMP:  76; 6HR MAX TEMP:  82;

NEW ORLEANS LA LGT RAIN  78  71  79 S7        29.83S
6HR MIN TEMP:  78; 6HR MAX TEMP:  85; 6HR PCP: TRACE;

OKLAHOMA CITY  PTSUNNY   54  41  61 N16       30.16R
6HR MIN TEMP:  54; 6HR MAX TEMP:  59;

ALBUQUERQUE NM FAIR      70  27  20 E8        30.10F
6HR MIN TEMP:  59; 6HR MAX TEMP:  71;

SALT LAKE CITY PTSUNNY   62  35  36 NW9       30.06F
6HR MIN TEMP:  56; 6HR MAX TEMP:  65;

LOS ANGELES CA FAIR      74  49  41 W18       29.84S
6HR MIN TEMP:  73; 6HR M



USA.gov is the U.S. government's official web portal to all federal, state and local government web resources and services.